Location: Aula-Vintri
(58.3875°N, 22.4322°E)
Time: 19:54:21
(UTC+00:00)

CZ-2D R/B - Pass Details

Date: 13 October 2019
Orbit: 522 x 538 km, 97.4° (Epoch: 14 November)

Event Time Altitude Azimuth Distance (km) Brightness Sun altitude
Rises 16:07:37 0° 137° (SE) 2,669 6.5 -5.5°
Reaches altitude 10° 16:09:50 10° 129° (SE) 1,786 5.5 -5.8°
Maximum altitude 16:13:21 34° 63° (ENE) 893 3.9 -6.2°
Drops below altitude 10° 16:16:53 10° 358° (N) 1,806 5.9 -6.7°
Sets 16:19:08 0° 349° (N) 2,705 6.9 -7.0°
